sat.trackr.live / text

‹ back to catalog

STARLINK-32308

NORAD 61663 · 2024-193C

PAYLOAD ACTIVE UNKNOWN

§ Identity

Operator
Country
US
Launch date
2024-10-26
Launch site
AFETR
Launch vehicle
Mass (kg)
RCS (m²)

Purposes: comms

External: N2YO · Heavens-Above · Gunter

§ Orbital elements

Epoch: 2026-05-25T03:12:44.334144Z

Period
93.85 min
Inclination
53.1617°
Eccentricity
0.0001258
Mean motion
15.34389700 rev/d
Perigee alt
461.9 km
Apogee alt
463.6 km
Semi-major
6,840.9 km
B*
1.3841e-5
RAAN
95.0057°
Arg perigee
83.2353°
Mean anomaly
276.8793°
Rev number
8,824

§ Raw data

STARLINK-323081 61663U 24193C   26145.13384646  .00000091  00000+0  13841-4 0  99942 61663  53.1617  95.0057 0001258  83.2353 276.8793 15.34389700 88247

JSON: /api/v1/satellites/61663 · /tle

For live sub-satellite position, see the globe view (requires WebGL).

§ Visibility from observer

Set your observer location to see the next 7 days of passes ≥ 10°. The values pass through the URL so the page stays shareable.

No JS? Fill the form by hand. The geolocation button needs JavaScript.